Time,TemperatureF,DewpointF,PressureIn,WindDirection,WindDirectionDegrees,WindSpeedMPH,WindSpeedGustMPH,Humidity,HourlyPrecipIn,Conditions,Clouds,dailyrainin,SoftwareType,DateUTC
2013-03-10 00:04:00,51.6,36.9,29.09,SSW,198,18.0,18.0,57,0.00,RA,,0.00,WeatherDisplay:10.37,2013-03-10 06:04:00,
2013-03-10 00:09:00,51.6,36.9,29.09,SSW,195,18.0,18.0,57,0.00,RA,,0.00,WeatherDisplay:10.37,2013-03-10 06:09:00,
2013-03-10 00:14:00,51.6,36.9,29.09,SSW,195,17.0,18.0,57,0.00,BKN,,0.00,WeatherDisplay:10.37,2013-03-10 06:14:00,
2013-03-10 00:19:00,51.6,36.9,29.06,SSW,195,17.0,17.0,57,0.00,BKN,,0.00,WeatherDisplay:10.37,2013-03-10 06:19:00,
2013-03-10 00:24:00,51.6,36.9,29.06,SSW,195,16.0,17.0,57,0.00,BKN,,0.00,WeatherDisplay:10.37,2013-03-10 06:24:00,
2013-03-10 00:29:00,51.6,36.9,29.09,SSW,196,16.0,16.0,57,0.00,BKN,,0.00,WeatherDisplay:10.37,2013-03-10 06:29:00,
2013-03-10 00:34:00,51.6,36.9,29.06,SSW,202,16.0,16.0,57,0.00,BKN,,0.00,WeatherDisplay:10.37,2013-03-10 06:34:00,
2013-03-10 00:39:00,51.6,36.9,29.06,SSW,204,16.0,16.0,57,0.00,BKN,,0.00,WeatherDisplay:10.37,2013-03-10 06:39:00,
2013-03-10 00:44:00,51.6,36.9,29.06,SSW,203,16.0,16.0,57,0.00,BKN,,0.00,WeatherDisplay:10.37,2013-03-10 06:44:00,
2013-03-10 00:49:00,51.6,36.9,29.06,SSW,205,16.0,16.0,57,0.00,SCT,,0.00,WeatherDisplay:10.37,2013-03-10 06:49:00,
2013-03-10 00:54:00,51.6,36.9,29.06,SSW,205,16.0,17.0,57,0.00,SCT,,0.00,WeatherDisplay:10.37,2013-03-10 06:54:00,
2013-03-10 00:59:00,51.6,36.9,29.06,SSW,209,16.0,17.0,57,0.00,SCT,,0.00,WeatherDisplay:10.37,2013-03-10 06:59:00,
2013-03-10 01:04:00,51.6,36.9,29.06,SSW,206,17.0,17.0,57,0.00,BKN,,0.00,WeatherDisplay:10.37,2013-03-10 07:04:00,
2013-03-10 01:09:00,51.6,36.9,29.06,SSW,205,17.0,17.0,57,0.00,BKN,,0.00,WeatherDisplay:10.37,2013-03-10 07:09:00,
2013-03-10 01:14:00,51.6,36.9,29.06,SSW,203,16.0,17.0,57,0.00,BKN,,0.00,WeatherDisplay:10.37,2013-03-10 07:14:00,
2013-03-10 01:19:00,51.6,36.9,29.06,SSW,199,16.0,17.0,57,0.00,BKN,,0.00,WeatherDisplay:10.37,2013-03-10 07:19:00,
2013-03-10 01:24:00,51.6,36.9,29.06,SSW,200,16.0,16.0,57,0.00,BKN,,0.00,WeatherDisplay:10.37,2013-03-10 07:24:00,
2013-03-10 01:29:00,51.6,36.9,29.06,SSW,202,16.0,16.0,57,0.00,BKN,,0.00,WeatherDisplay:10.37,2013-03-10 07:29:00,
2013-03-10 01:34:00,51.6,36.9,29.06,SSW,201,16.0,16.0,57,0.00,SCT,,0.00,WeatherDisplay:10.37,2013-03-10 07:34:00,
2013-03-10 01:39:00,51.6,36.9,29.06,SSW,201,15.0,16.0,57,0.00,SCT,,0.00,WeatherDisplay:10.37,2013-03-10 07:39:00,
2013-03-10 01:44:00,51.6,36.9,29.06,SSW,197,15.0,15.0,57,0.00,SCT,,0.00,WeatherDisplay:10.37,2013-03-10 07:44:00,
2013-03-10 01:49:00,51.6,36.9,29.06,SSW,202,15.0,15.0,57,0.00,BKN,,0.00,WeatherDisplay:10.37,2013-03-10 07:49:00,
2013-03-10 01:54:00,51.6,36.9,29.06,SSW,205,15.0,15.0,57,0.00,BKN,,0.00,WeatherDisplay:10.37,2013-03-10 07:54:00,
2013-03-10 01:59:00,51.6,36.9,29.06,SSW,205,15.0,15.0,57,0.00,BKN,,0.00,WeatherDisplay:10.37,2013-03-10 07:59:00,
2013-03-10 03:04:00,51.6,36.9,29.06,SSW,205,14.0,15.0,57,0.00,OVC,,0.00,WeatherDisplay:10.37,2013-03-10 08:04:00,
2013-03-10 03:09:00,51.6,36.9,29.06,SSW,205,14.0,14.0,57,0.00,OVC,,0.00,WeatherDisplay:10.37,2013-03-10 08:09:00,
2013-03-10 03:14:00,51.6,36.9,29.06,SSW,209,14.0,14.0,57,0.00,OVC,,0.00,WeatherDisplay:10.37,2013-03-10 08:14:00,
2013-03-10 03:19:00,51.6,36.9,29.06,SW,215,14.0,14.0,57,0.00,OVC,,0.00,WeatherDisplay:10.37,2013-03-10 08:19:00,
2013-03-10 03:24:00,51.6,36.9,29.06,SW,216,14.0,14.0,57,0.00,OVC,,0.00,WeatherDisplay:10.37,2013-03-10 08:24:00,
2013-03-10 03:29:00,51.6,36.9,29.06,SW,222,13.0,14.0,57,0.00,OVC,,0.00,WeatherDisplay:10.37,2013-03-10 08:29:00,
2013-03-10 03:34:00,51.6,36.9,29.06,SSW,211,13.0,13.0,57,0.00,OVC,,0.00,WeatherDisplay:10.37,2013-03-10 08:34:00,
2013-03-10 03:39:00,51.6,36.9,29.06,SSW,202,12.0,13.0,57,0.00,OVC,,0.00,WeatherDisplay:10.37,2013-03-10 08:39:00,
2013-03-10 03:44:00,51.6,36.9,29.06,SSW,203,12.0,12.0,57,0.00,OVC,,0.00,WeatherDisplay:10.37,2013-03-10 08:44:00,
2013-03-10 03:49:00,51.6,36.9,29.06,SSW,206,13.0,13.0,57,0.00,-RA,,0.00,WeatherDisplay:10.37,2013-03-10 08:49:00,
2013-03-10 03:54:00,51.6,36.9,29.06,SSW,206,13.0,13.0,57,0.00,-RA,,0.00,WeatherDisplay:10.37,2013-03-10 08:54:00,
2013-03-10 03:59:00,51.6,36.9,29.06,SSW,205,13.0,13.0,57,0.00,-RA,,0.00,WeatherDisplay:10.37,2013-03-10 08:59:00,
2013-03-10 04:04:00,51.6,36.9,29.06,SSW,205,14.0,14.0,57,0.00,-RA,,0.00,WeatherDisplay:10.37,2013-03-10 09:04:00,
2013-03-10 04:09:00,51.3,38.7,29.06,SSW,204,14.0,14.0,62,0.00,-RA,,0.00,WeatherDisplay:10.37,2013-03-10 09:09:00,
2013-03-10 04:14:00,51.4,38.8,29.06,SSW,200,14.0,14.0,62,0.00,-RA,,0.00,WeatherDisplay:10.37,2013-03-10 09:14:00,
2013-03-10 04:19:00,51.4,39.3,29.06,SSW,205,15.0,15.0,63,0.00,-RA,,0.00,WeatherDisplay:10.37,2013-03-10 09:19:00,
2013-03-10 04:24:00,51.4,39.3,29.06,SSW,206,15.0,15.0,63,0.00,-RA,,0.00,WeatherDisplay:10.37,2013-03-10 09:24:00,
2013-03-10 04:29:00,51.4,39.3,29.06,SSW,203,15.0,15.0,63,0.00,-RA,,0.00,WeatherDisplay:10.37,2013-03-10 09:29:00,
2013-03-10 04:34:00,51.4,38.8,29.06,SSW,198,15.0,15.0,62,0.00,OVC,,0.00,WeatherDisplay:10.37,2013-03-10 09:34:00,
2013-03-10 04:39:00,51.6,39.0,29.06,SSW,196,15.0,15.0,62,0.00,OVC,,0.00,WeatherDisplay:10.37,2013-03-10 09:39:00,
2013-03-10 04:49:00,51.4,38.8,29.06,SSW,193,14.0,15.0,62,0.00,BKN,,0.00,WeatherDisplay:10.37,2013-03-10 09:49:00,
2013-03-10 04:54:00,51.6,39.0,29.06,SSW,196,14.0,14.0,62,0.00,BKN,,0.00,WeatherDisplay:10.37,2013-03-10 09:54:00,
2013-03-10 04:59:00,51.4,38.8,29.06,SSW,200,14.0,14.0,62,0.00,BKN,,0.00,WeatherDisplay:10.37,2013-03-10 09:59:00,
2013-03-10 05:04:00,51.3,38.7,29.06,SSW,194,13.0,14.0,62,0.00,BKN,,0.00,WeatherDisplay:10.37,2013-03-10 10:04:00,
2013-03-10 05:09:00,51.3,38.7,29.06,South,191,13.0,13.0,62,0.00,BKN,,0.01,WeatherDisplay:10.37,2013-03-10 10:09:00,
2013-03-10 05:14:00,51.3,38.7,29.09,SSW,192,13.0,13.0,62,0.00,RA,,0.01,WeatherDisplay:10.37,2013-03-10 10:14:00,
2013-03-10 05:19:00,51.3,38.7,29.09,SSW,203,12.0,13.0,62,0.00,BKN,,0.01,WeatherDisplay:10.37,2013-03-10 10:19:00,
2013-03-10 05:24:00,51.3,38.7,29.09,SSW,208,12.0,12.0,62,0.01,RA,,0.03,WeatherDisplay:10.37,2013-03-10 10:24:00,
2013-03-10 05:29:00,51.3,38.7,29.09,SSW,207,12.0,12.0,62,0.01,RA,,0.04,WeatherDisplay:10.37,2013-03-10 10:29:00,
2013-03-10 05:34:00,51.3,38.7,29.09,SSW,198,12.0,12.0,62,0.01,-RA,,0.06,WeatherDisplay:10.37,2013-03-10 10:34:00,
2013-03-10 05:39:00,51.3,38.7,29.06,SSW,195,12.0,12.0,62,0.00,-RA,,0.06,WeatherDisplay:10.37,2013-03-10 10:39:00,
2013-03-10 05:44:00,51.3,38.7,29.06,South,191,12.0,12.0,62,0.01,-RA,,0.07,WeatherDisplay:10.37,2013-03-10 10:44:00,
2013-03-10 05:49:00,51.3,38.7,29.06,South,187,13.0,13.0,62,0.01,-RA,,0.09,WeatherDisplay:10.37,2013-03-10 10:49:00,
2013-03-10 05:54:00,51.3,38.7,29.06,South,184,13.0,13.0,62,0.00,-RA,,0.09,WeatherDisplay:10.37,2013-03-10 10:54:00,
2013-03-10 05:59:00,51.3,38.7,29.06,South,185,13.0,13.0,62,0.00,-RA,,0.10,WeatherDisplay:10.37,2013-03-10 10:59:00,
2013-03-10 06:04:00,51.3,38.7,29.06,South,183,13.0,13.0,62,0.00,-RA,,0.10,WeatherDisplay:10.37,2013-03-10 11:04:00,
2013-03-10 06:09:00,51.3,38.7,29.06,South,180,13.0,13.0,62,0.00,-RA,,0.10,WeatherDisplay:10.37,2013-03-10 11:09:00,
2013-03-10 06:14:00,51.3,38.7,29.03,South,175,12.0,13.0,62,0.00,-RA,,0.10,WeatherDisplay:10.37,2013-03-10 11:14:00,
2013-03-10 06:19:00,51.3,38.7,29.03,South,177,12.0,12.0,62,0.00,-RA,,0.10,WeatherDisplay:10.37,2013-03-10 11:19:00,
2013-03-10 06:24:00,51.3,38.7,29.03,South,176,12.0,12.0,62,0.00,-RA,,0.10,WeatherDisplay:10.37,2013-03-10 11:24:00,
2013-03-10 06:29:00,51.3,38.7,29.03,South,169,12.0,12.0,62,0.00,-RA,,0.10,WeatherDisplay:10.37,2013-03-10 11:29:00,
2013-03-10 06:34:00,51.3,38.7,29.03,South,169,12.0,12.0,62,0.00,OVC,,0.10,WeatherDisplay:10.37,2013-03-10 11:34:00,
2013-03-10 06:39:00,51.3,38.7,29.03,South,173,12.0,12.0,62,0.00,OVC,,0.10,WeatherDisplay:10.37,2013-03-10 11:39:00,
2013-03-10 06:44:00,51.3,38.7,29.03,South,171,13.0,13.0,62,0.00,OVC,,0.10,WeatherDisplay:10.37,2013-03-10 11:44:00,
2013-03-10 06:49:00,51.3,38.7,29.03,South,174,13.0,13.0,62,0.00,OVC,,0.10,WeatherDisplay:10.37,2013-03-10 11:49:00,
2013-03-10 06:54:00,51.3,38.7,29.03,South,177,13.0,13.0,62,0.00,OVC,,0.10,WeatherDisplay:10.37,2013-03-10 11:54:00,
2013-03-10 06:59:00,51.3,38.7,29.03,South,178,13.0,13.0,62,0.00,OVC,,0.10,WeatherDisplay:10.37,2013-03-10 11:59:00,
2013-03-10 07:04:00,51.3,38.7,29.03,South,186,14.0,14.0,62,0.00,OVC,,0.10,WeatherDisplay:10.37,2013-03-10 12:04:00,
2013-03-10 07:09:00,51.3,38.7,29.03,South,185,14.0,14.0,62,0.00,OVC,,0.10,WeatherDisplay:10.37,2013-03-10 12:09:00,
2013-03-10 07:14:00,51.3,38.7,29.03,South,185,14.0,14.0,62,0.00,OVC,,0.10,WeatherDisplay:10.37,2013-03-10 12:14:00,
2013-03-10 07:19:00,51.3,38.7,29.03,South,183,15.0,15.0,62,0.00,OVC,,0.10,WeatherDisplay:10.37,2013-03-10 12:19:00,
2013-03-10 07:24:00,51.3,38.7,29.03,South,183,15.0,15.0,62,0.00,OVC,,0.10,WeatherDisplay:10.37,2013-03-10 12:24:00,
2013-03-10 07:29:00,49.5,39.7,29.03,South,184,15.0,15.0,69,0.00,OVC,,0.10,WeatherDisplay:10.37,2013-03-10 12:29:00,
2013-03-10 07:34:00,49.6,39.9,29.03,South,185,14.0,15.0,69,0.00,BKN,,0.10,WeatherDisplay:10.37,2013-03-10 12:34:00,
2013-03-10 07:44:00,49.3,39.5,29.03,South,181,14.0,14.0,69,0.00,BKN,,0.10,WeatherDisplay:10.37,2013-03-10 12:44:00,
2013-03-10 07:49:00,49.6,39.9,29.03,South,180,14.0,14.0,69,0.00,SCT,,0.10,WeatherDisplay:10.37,2013-03-10 12:49:00,
2013-03-10 07:54:00,49.6,39.9,29.03,South,177,14.0,14.0,69,0.00,SCT,,0.10,WeatherDisplay:10.37,2013-03-10 12:54:00,
2013-03-10 07:59:00,50.0,39.8,29.03,South,173,14.0,14.0,68,0.00,SCT,,0.10,WeatherDisplay:10.37,2013-03-10 12:59:00,
2013-03-10 08:04:00,50.0,39.8,29.03,South,177,14.0,14.0,68,0.00,SCT,,0.10,WeatherDisplay:10.37,2013-03-10 13:04:00,
2013-03-10 08:09:00,50.2,40.4,29.03,South,182,14.0,14.0,69,0.00,SCT,,0.10,WeatherDisplay:10.37,2013-03-10 13:09:00,
2013-03-10 08:14:00,50.4,40.6,29.03,South,187,14.0,14.0,69,0.00,SCT,,0.10,WeatherDisplay:10.37,2013-03-10 13:14:00,
2013-03-10 08:19:00,50.4,40.6,29.03,South,190,15.0,15.0,69,0.00,SCT,,0.10,WeatherDisplay:10.37,2013-03-10 13:19:00,
2013-03-10 08:24:00,51.1,41.3,29.06,South,188,15.0,15.0,69,0.00,SCT,,0.10,WeatherDisplay:10.37,2013-03-10 13:24:00,
2013-03-10 08:29:00,50.9,41.1,29.06,South,187,15.0,15.0,69,0.00,SCT,,0.10,WeatherDisplay:10.37,2013-03-10 13:29:00,
2013-03-10 08:34:00,51.3,41.4,29.06,South,187,15.0,15.0,69,0.00,SCT,,0.10,WeatherDisplay:10.37,2013-03-10 13:34:00,
2013-03-10 08:39:00,51.4,41.6,29.06,South,185,15.0,15.0,69,0.00,SCT,,0.10,WeatherDisplay:10.37,2013-03-10 13:39:00,
2013-03-10 08:44:00,51.6,41.8,29.06,South,184,15.0,15.0,69,0.00,SCT,,0.10,WeatherDisplay:10.37,2013-03-10 13:44:00,
2013-03-10 08:49:00,52.0,42.1,29.06,South,183,15.0,15.0,69,0.00,SCT,,0.10,WeatherDisplay:10.37,2013-03-10 13:49:00,
2013-03-10 08:54:00,52.0,42.1,29.06,South,181,15.0,15.0,69,0.00,SCT,,0.10,WeatherDisplay:10.37,2013-03-10 13:54:00,
2013-03-10 08:59:00,52.0,42.1,29.06,South,184,15.0,15.0,69,0.00,SCT,,0.10,WeatherDisplay:10.37,2013-03-10 13:59:00,
2013-03-10 09:04:00,52.3,42.5,29.06,South,182,15.0,15.0,69,0.00,BKN,,0.10,WeatherDisplay:10.37,2013-03-10 14:04:00,
2013-03-10 09:09:00,52.7,42.8,29.03,South,184,15.0,15.0,69,0.00,BKN,,0.10,WeatherDisplay:10.37,2013-03-10 14:09:00,
2013-03-10 09:14:00,53.2,43.7,29.03,South,186,15.0,15.0,70,0.00,BKN,,0.10,WeatherDisplay:10.37,2013-03-10 14:14:00,
2013-03-10 09:19:00,53.8,43.5,29.03,South,183,15.0,15.0,68,0.00,BKN,,0.10,WeatherDisplay:10.37,2013-03-10 14:19:00,
2013-03-10 09:24:00,54.3,44.0,29.03,South,183,15.0,15.0,68,0.00,BKN,,0.10,WeatherDisplay:10.37,2013-03-10 14:24:00,
2013-03-10 09:29:00,54.9,44.1,29.03,South,185,15.0,15.0,67,0.00,BKN,,0.10,WeatherDisplay:10.37,2013-03-10 14:29:00,
2013-03-10 09:34:00,55.4,44.2,29.03,South,185,15.0,15.0,66,0.00,BKN,,0.10,WeatherDisplay:10.37,2013-03-10 14:34:00,
2013-03-10 09:39:00,55.8,44.6,29.03,South,186,15.0,15.0,66,0.00,BKN,,0.10,WeatherDisplay:10.37,2013-03-10 14:39:00,
2013-03-10 09:44:00,56.1,44.9,29.03,South,186,15.0,15.0,66,0.00,BKN,,0.10,WeatherDisplay:10.37,2013-03-10 14:44:00,
2013-03-10 09:49:00,56.3,44.7,29.03,South,191,15.0,15.0,65,0.00,BKN,,0.10,WeatherDisplay:10.37,2013-03-10 14:49:00,
2013-03-10 09:54:00,57.0,45.4,29.03,South,191,15.0,15.0,65,0.00,BKN,,0.10,WeatherDisplay:10.37,2013-03-10 14:54:00,
2013-03-10 09:59:00,57.2,45.1,29.03,South,186,15.0,15.0,64,0.00,BKN,,0.10,WeatherDisplay:10.37,2013-03-10 14:59:00,
2013-03-10 10:04:00,56.7,45.0,29.03,South,189,15.0,15.0,65,0.00,BKN,,0.10,WeatherDisplay:10.37,2013-03-10 15:04:00,
2013-03-10 10:09:00,56.5,44.9,29.03,SSW,192,16.0,16.0,65,0.00,BKN,,0.10,WeatherDisplay:10.37,2013-03-10 15:09:00,
2013-03-10 10:14:00,56.5,44.9,29.03,SSW,195,16.0,16.0,65,0.00,BKN,,0.10,WeatherDisplay:10.37,2013-03-10 15:14:00,
2013-03-10 10:19:00,56.3,45.1,29.03,South,191,16.0,16.0,66,0.00,BKN,,0.10,WeatherDisplay:10.37,2013-03-10 15:19:00,
2013-03-10 10:24:00,56.5,45.7,29.03,South,188,16.0,16.0,67,0.00,BKN,,0.10,WeatherDisplay:10.37,2013-03-10 15:24:00,
2013-03-10 10:29:00,56.8,46.0,29.00,South,183,15.0,16.0,67,0.00,BKN,,0.10,WeatherDisplay:10.37,2013-03-10 15:29:00,
2013-03-10 10:34:00,56.1,44.9,29.00,South,185,15.0,15.0,66,0.00,BKN,,0.10,WeatherDisplay:10.37,2013-03-10 15:34:00,
2013-03-10 10:39:00,55.8,45.0,29.00,South,183,15.0,15.0,67,0.00,BKN,,0.10,WeatherDisplay:10.37,2013-03-10 15:39:00,
2013-03-10 10:44:00,55.2,45.2,29.00,South,182,15.0,15.0,69,0.00,BKN,,0.10,WeatherDisplay:10.37,2013-03-10 15:44:00,
2013-03-10 10:49:00,55.6,45.9,29.00,SSW,194,16.0,16.0,70,0.00,BKN,,0.10,WeatherDisplay:10.37,2013-03-10 15:49:00,
2013-03-10 10:54:00,55.9,46.3,29.00,SSW,195,16.0,16.0,70,0.00,BKN,,0.10,WeatherDisplay:10.37,2013-03-10 15:54:00,
2013-03-10 10:59:00,55.4,45.8,29.00,South,191,16.0,16.0,70,0.00,BKN,,0.10,WeatherDisplay:10.37,2013-03-10 15:59:00,
2013-03-10 11:09:00,54.7,45.8,29.03,South,188,16.0,16.0,72,0.00,-RA,,0.11,WeatherDisplay:10.37,2013-03-10 16:09:00,
2013-03-10 11:14:00,55.2,46.3,29.00,South,183,16.0,16.0,72,0.00,-RA,,0.11,WeatherDisplay:10.37,2013-03-10 16:14:00,
2013-03-10 11:19:00,56.5,47.6,29.00,South,175,15.0,16.0,72,0.00,-RA,,0.11,WeatherDisplay:10.37,2013-03-10 16:19:00,
2013-03-10 11:24:00,56.3,47.4,29.00,South,171,15.0,15.0,72,0.00,-RA,,0.11,WeatherDisplay:10.37,2013-03-10 16:24:00,
2013-03-10 11:29:00,56.5,47.2,29.00,SSE,168,14.0,15.0,71,0.00,-RA,,0.11,WeatherDisplay:10.37,2013-03-10 16:29:00,
2013-03-10 11:34:00,56.1,46.5,29.03,South,173,14.0,14.0,70,0.00,BKN,,0.11,WeatherDisplay:10.37,2013-03-10 16:34:00,
2013-03-10 11:39:00,56.1,46.5,29.03,South,175,13.0,14.0,70,0.00,BKN,,0.11,WeatherDisplay:10.37,2013-03-10 16:39:00,
2013-03-10 11:44:00,55.6,45.9,29.03,South,179,13.0,13.0,70,0.00,BKN,,0.11,WeatherDisplay:10.37,2013-03-10 16:44:00,
2013-03-10 11:49:00,55.6,46.3,29.03,South,184,13.0,13.0,71,0.00,BKN,,0.11,WeatherDisplay:10.37,2013-03-10 16:49:00,
2013-03-10 11:54:00,55.0,46.2,29.03,South,185,13.0,13.0,72,0.00,BKN,,0.11,WeatherDisplay:10.37,2013-03-10 16:54:00,
2013-03-10 11:59:00,55.4,46.5,29.03,South,186,13.0,13.0,72,0.00,BKN,,0.11,WeatherDisplay:10.37,2013-03-10 16:59:00,
2013-03-10 12:04:00,57.2,47.5,29.03,South,189,14.0,14.0,70,0.00,-RA,,0.11,WeatherDisplay:10.37,2013-03-10 17:04:00,
2013-03-10 12:09:00,57.4,47.3,29.00,South,189,14.0,14.0,69,0.00,-RA,,0.11,WeatherDisplay:10.37,2013-03-10 17:09:00,
2013-03-10 12:14:00,58.6,48.1,29.00,South,190,15.0,15.0,68,0.00,-RA,,0.11,WeatherDisplay:10.37,2013-03-10 17:14:00,
2013-03-10 12:19:00,59.4,47.6,29.00,South,186,16.0,16.0,65,0.00,-RA,,0.11,WeatherDisplay:10.37,2013-03-10 17:19:00,
2013-03-10 12:24:00,59.0,47.2,29.00,South,187,16.0,16.0,65,0.00,-RA,,0.11,WeatherDisplay:10.37,2013-03-10 17:24:00,
2013-03-10 12:29:00,58.3,47.0,29.00,South,188,16.0,16.0,66,0.00,-RA,,0.11,WeatherDisplay:10.37,2013-03-10 17:29:00,
2013-03-10 12:34:00,59.2,47.8,29.00,South,185,16.0,16.0,66,0.00,-RA,,0.11,WeatherDisplay:10.37,2013-03-10 17:34:00,
2013-03-10 12:39:00,59.4,48.0,28.97,South,182,15.0,16.0,66,0.00,-RA,,0.11,WeatherDisplay:10.37,2013-03-10 17:39:00,
2013-03-10 12:44:00,59.7,47.9,28.97,South,182,15.0,15.0,65,0.00,-RA,,0.11,WeatherDisplay:10.37,2013-03-10 17:44:00,
2013-03-10 12:49:00,60.8,48.5,28.97,South,187,15.0,15.0,64,0.00,SCT,,0.11,WeatherDisplay:10.37,2013-03-10 17:49:00,
2013-03-10 12:54:00,61.5,48.8,28.97,South,186,15.0,15.0,63,0.00,SCT,,0.11,WeatherDisplay:10.37,2013-03-10 17:54:00,
2013-03-10 12:59:00,61.2,47.2,28.97,South,189,15.0,15.0,60,0.00,SCT,,0.11,WeatherDisplay:10.37,2013-03-10 17:59:00,
2013-03-10 13:04:00,61.0,47.4,28.94,South,189,15.0,15.0,61,0.00,-RA,,0.11,WeatherDisplay:10.37,2013-03-10 18:04:00,
2013-03-10 13:09:00,60.6,47.1,28.94,South,188,16.0,16.0,61,0.00,-RA,,0.11,WeatherDisplay:10.37,2013-03-10 18:09:00,
2013-03-10 13:14:00,60.3,46.8,28.94,South,185,16.0,16.0,61,0.00,-RA,,0.11,WeatherDisplay:10.37,2013-03-10 18:14:00,
2013-03-10 13:19:00,59.9,46.8,28.94,South,187,16.0,16.0,62,0.00,-RA,,0.11,WeatherDisplay:10.37,2013-03-10 18:19:00,
2013-03-10 13:24:00,59.7,47.1,28.94,South,191,16.0,17.0,63,0.00,-RA,,0.11,WeatherDisplay:10.37,2013-03-10 18:24:00,
2013-03-10 13:29:00,59.5,47.3,28.91,SSW,193,17.0,17.0,64,0.00,-RA,,0.11,WeatherDisplay:10.37,2013-03-10 18:29:00,
2013-03-10 13:34:00,59.5,47.3,28.91,South,186,18.0,18.0,64,0.00,-RA,,0.11,WeatherDisplay:10.37,2013-03-10 18:34:00,
2013-03-10 13:39:00,59.5,47.3,28.91,South,187,18.0,18.0,64,0.00,-RA,,0.11,WeatherDisplay:10.37,2013-03-10 18:39:00,
2013-03-10 13:44:00,59.0,47.2,28.91,SSW,192,20.0,20.0,65,0.00,-RA,,0.11,WeatherDisplay:10.37,2013-03-10 18:44:00,
2013-03-10 13:49:00,59.0,47.7,28.91,South,188,20.0,20.0,66,0.01,-RA,,0.13,WeatherDisplay:10.37,2013-03-10 18:49:00,
2013-03-10 13:54:00,59.0,47.7,28.91,South,185,20.0,20.0,66,0.00,-RA,,0.13,WeatherDisplay:10.37,2013-03-10 18:54:00,
2013-03-10 13:59:00,58.5,47.9,28.91,South,181,21.0,21.0,68,0.00,-RA,,0.13,WeatherDisplay:10.37,2013-03-10 18:59:00,
2013-03-10 14:04:00,57.9,47.8,28.91,South,182,22.0,22.0,69,0.01,RA,,0.14,WeatherDisplay:10.37,2013-03-10 19:04:00,
2013-03-10 14:09:00,57.6,47.8,28.91,South,184,22.0,22.0,70,0.01,RA,,0.16,WeatherDisplay:10.37,2013-03-10 19:09:00,
2013-03-10 14:14:00,57.2,47.9,28.91,South,188,22.0,22.0,71,0.00,RA,,0.16,WeatherDisplay:10.37,2013-03-10 19:14:00,
2013-03-10 14:19:00,56.8,48.3,28.91,SSW,197,21.0,22.0,73,0.00,RA,,0.17,WeatherDisplay:10.37,2013-03-10 19:19:00,
2013-03-10 14:24:00,56.5,47.9,28.91,SSW,208,21.0,21.0,73,0.01,RA,,0.18,WeatherDisplay:10.37,2013-03-10 19:24:00,
2013-03-10 14:29:00,56.1,47.9,28.94,SW,236,20.0,20.0,74,0.00,RA,,0.20,WeatherDisplay:10.37,2013-03-10 19:29:00,
2013-03-10 14:34:00,55.9,48.1,28.94,WSW,239,18.0,20.0,75,0.04,RA,,0.24,WeatherDisplay:10.37,2013-03-10 19:34:00,
2013-03-10 14:39:00,55.8,48.3,28.94,SW,231,17.0,18.0,76,0.03,RA,,0.27,WeatherDisplay:10.37,2013-03-10 19:39:00,
2013-03-10 14:44:00,55.6,48.5,28.94,SW,229,17.0,17.0,77,0.01,RA,,0.28,WeatherDisplay:10.37,2013-03-10 19:44:00,
2013-03-10 14:49:00,55.6,48.5,28.94,SW,235,16.0,17.0,77,0.00,RA,,0.30,WeatherDisplay:10.37,2013-03-10 19:49:00,
2013-03-10 14:54:00,55.4,48.7,28.94,SW,229,16.0,16.0,78,0.03,RA,,0.34,WeatherDisplay:10.37,2013-03-10 19:54:00,
2013-03-10 14:59:00,55.6,48.8,28.94,SW,222,15.0,15.0,78,0.01,RA,,0.35,WeatherDisplay:10.37,2013-03-10 19:59:00,
2013-03-10 15:04:00,55.6,49.2,28.94,SW,227,14.0,15.0,79,0.01,RA,,0.40,WeatherDisplay:10.37,2013-03-10 20:04:00,
2013-03-10 15:09:00,55.6,49.2,28.94,SW,229,14.0,14.0,79,0.01,RA,,0.44,WeatherDisplay:10.37,2013-03-10 20:09:00,
2013-03-10 15:14:00,55.2,49.2,28.94,WSW,251,14.0,14.0,80,0.00,RA,,0.44,WeatherDisplay:10.37,2013-03-10 20:14:00,
2013-03-10 15:19:00,54.1,48.1,28.94,WNW,291,14.0,14.0,80,0.01,RA,,0.45,WeatherDisplay:10.37,2013-03-10 20:19:00,
2013-03-10 15:24:00,53.8,47.8,28.94,WNW,292,14.0,14.0,80,0.00,RA,,0.45,WeatherDisplay:10.37,2013-03-10 20:24:00,
2013-03-10 15:29:00,53.2,47.6,28.94,WNW,294,14.0,14.0,81,0.00,OVC,,0.45,WeatherDisplay:10.37,2013-03-10 20:29:00,
2013-03-10 15:34:00,53.1,47.4,28.94,WNW,299,14.0,14.0,81,0.00,-RA,,0.45,WeatherDisplay:10.37,2013-03-10 20:34:00,
2013-03-10 15:39:00,53.1,47.4,28.94,WNW,302,14.0,14.0,81,0.00,-RA,,0.47,WeatherDisplay:10.37,2013-03-10 20:39:00,
2013-03-10 15:44:00,53.1,47.4,28.94,NW,310,14.0,14.0,81,0.00,-RA,,0.47,WeatherDisplay:10.37,2013-03-10 20:44:00,
2013-03-10 15:49:00,52.7,47.0,28.94,NW,312,14.0,14.0,81,0.00,OVC,,0.47,WeatherDisplay:10.37,2013-03-10 20:49:00,
2013-03-10 15:54:00,52.9,47.2,28.94,NW,310,13.0,14.0,81,0.00,OVC,,0.47,WeatherDisplay:10.37,2013-03-10 20:54:00,
2013-03-10 15:59:00,52.7,47.0,28.94,NW,308,13.0,13.0,81,0.00,OVC,,0.47,WeatherDisplay:10.37,2013-03-10 20:59:00,
2013-03-10 16:04:00,53.1,47.4,28.94,NW,310,13.0,13.0,81,0.00,-RA,,0.48,WeatherDisplay:10.37,2013-03-10 21:04:00,
2013-03-10 16:09:00,52.5,46.5,28.94,WNW,303,12.0,13.0,80,0.00,-RA,,0.48,WeatherDisplay:10.37,2013-03-10 21:09:00,
2013-03-10 16:14:00,52.3,46.4,28.97,WNW,288,12.0,12.0,80,0.01,-RA,,0.50,WeatherDisplay:10.37,2013-03-10 21:14:00,
2013-03-10 16:19:00,52.0,46.0,28.97,West,275,10.0,12.0,80,0.00,-RA,,0.50,WeatherDisplay:10.37,2013-03-10 21:19:00,
2013-03-10 16:24:00,52.0,46.0,28.97,West,276,10.0,11.0,80,0.01,-RA,,0.51,WeatherDisplay:10.37,2013-03-10 21:24:00,
2013-03-10 16:29:00,52.0,46.0,28.97,West,272,9.0,10.0,80,0.00,-RA,,0.51,WeatherDisplay:10.37,2013-03-10 21:29:00,
2013-03-10 16:34:00,51.8,46.2,28.97,SW,236,8.0,9.0,81,0.01,-RA,,0.54,WeatherDisplay:10.37,2013-03-10 21:34:00,
2013-03-10 16:39:00,51.8,46.2,28.97,SW,225,8.0,8.0,81,0.00,-RA,,0.55,WeatherDisplay:10.37,2013-03-10 21:39:00,
2013-03-10 16:44:00,51.6,46.0,28.94,SW,225,7.0,7.0,81,0.00,-RA,,0.55,WeatherDisplay:10.37,2013-03-10 21:44:00,
2013-03-10 16:49:00,51.6,46.0,28.94,SSW,205,6.0,7.0,81,0.00,OVC,,0.55,WeatherDisplay:10.37,2013-03-10 21:49:00,
2013-03-10 16:54:00,52.0,46.3,28.94,South,175,5.0,6.0,81,0.01,RA,,0.57,WeatherDisplay:10.37,2013-03-10 21:54:00,
2013-03-10 16:59:00,51.8,46.2,28.94,SSE,147,5.0,5.0,81,0.00,RA,,0.57,WeatherDisplay:10.37,2013-03-10 21:59:00,
2013-03-10 17:04:00,51.6,46.3,28.94,SSE,147,6.0,6.0,82,0.00,-RA,,0.58,WeatherDisplay:10.37,2013-03-10 22:04:00,
2013-03-10 17:09:00,52.0,46.3,28.91,SE,146,6.0,6.0,81,0.00,-RA,,0.58,WeatherDisplay:10.37,2013-03-10 22:09:00,
2013-03-10 17:14:00,51.6,46.3,28.91,SE,146,7.0,7.0,82,0.00,-RA,,0.58,WeatherDisplay:10.37,2013-03-10 22:14:00,
2013-03-10 17:19:00,51.6,46.3,28.91,SSE,148,7.0,7.0,82,0.00,-RA,,0.60,WeatherDisplay:10.37,2013-03-10 22:19:00,
2013-03-10 17:24:00,51.4,46.1,28.91,SSE,148,8.0,8.0,82,0.00,-RA,,0.60,WeatherDisplay:10.37,2013-03-10 22:24:00,
2013-03-10 17:29:00,53.1,47.7,28.91,SSE,154,8.0,8.0,82,0.00,-RA,,0.60,WeatherDisplay:10.37,2013-03-10 22:29:00,
2013-03-10 17:34:00,53.6,48.2,28.91,SSE,150,8.0,8.0,82,0.00,BKN,,0.60,WeatherDisplay:10.37,2013-03-10 22:34:00,
2013-03-10 17:39:00,53.4,48.4,28.91,SSE,148,8.0,8.0,83,0.00,BKN,,0.60,WeatherDisplay:10.37,2013-03-10 22:39:00,
2013-03-10 17:44:00,53.1,48.0,28.91,SE,146,9.0,9.0,83,0.00,BKN,,0.60,WeatherDisplay:10.37,2013-03-10 22:44:00,
2013-03-10 17:49:00,53.8,48.4,28.91,SSE,152,9.0,9.0,82,0.00,-RA,,0.60,WeatherDisplay:10.37,2013-03-10 22:49:00,
2013-03-10 17:54:00,54.0,48.6,28.91,SSE,163,9.0,9.0,82,0.00,-RA,,0.60,WeatherDisplay:10.37,2013-03-10 22:54:00,
2013-03-10 17:59:00,53.8,48.1,28.91,South,183,8.0,9.0,81,0.00,-RA,,0.60,WeatherDisplay:10.37,2013-03-10 22:59:00,
2013-03-10 18:04:00,53.4,48.1,28.94,SSW,199,8.0,8.0,82,0.00,OVC,,0.60,WeatherDisplay:10.37,2013-03-10 23:04:00,
2013-03-10 18:09:00,52.7,47.0,28.94,SSW,211,8.0,8.0,81,0.00,OVC,,0.60,WeatherDisplay:10.37,2013-03-10 23:09:00,
2013-03-10 18:14:00,52.3,46.7,28.94,SW,218,8.0,8.0,81,0.00,OVC,,0.60,WeatherDisplay:10.37,2013-03-10 23:14:00,
2013-03-10 18:19:00,52.0,46.3,28.94,SSW,204,8.0,8.0,81,0.00,OVC,,0.60,WeatherDisplay:10.37,2013-03-10 23:19:00,
2013-03-10 18:24:00,52.2,46.5,28.94,SSW,200,8.0,8.0,81,0.00,OVC,,0.60,WeatherDisplay:10.37,2013-03-10 23:24:00,
2013-03-10 18:29:00,52.0,46.3,28.94,SSW,209,8.0,8.0,81,0.00,OVC,,0.60,WeatherDisplay:10.37,2013-03-10 23:29:00,
2013-03-10 18:34:00,52.0,46.3,28.94,SSW,208,8.0,8.0,81,0.00,OVC,,0.60,WeatherDisplay:10.37,2013-03-10 23:34:00,
2013-03-10 18:39:00,52.0,46.3,28.94,SSW,200,8.0,8.0,81,0.00,OVC,,0.60,WeatherDisplay:10.37,2013-03-10 23:39:00,
2013-03-10 18:44:00,51.6,46.0,28.94,South,186,8.0,8.0,81,0.00,OVC,,0.60,WeatherDisplay:10.37,2013-03-10 23:44:00,
2013-03-10 18:49:00,51.4,45.5,28.94,South,176,8.0,8.0,80,0.00,OVC,,0.60,WeatherDisplay:10.37,2013-03-10 23:49:00,
2013-03-10 18:54:00,51.3,45.6,28.94,South,177,8.0,8.0,81,0.00,OVC,,0.60,WeatherDisplay:10.37,2013-03-10 23:54:00,
2013-03-10 18:59:00,50.9,45.3,28.94,South,180,8.0,8.0,81,0.00,OVC,,0.60,WeatherDisplay:10.37,2013-03-10 23:59:00,
2013-03-10 19:04:00,51.1,45.8,28.94,South,183,8.0,9.0,82,0.00,OVC,,0.60,WeatherDisplay:10.37,2013-03-11 00:04:00,
2013-03-10 19:09:00,51.1,45.8,28.94,South,180,9.0,9.0,82,0.00,OVC,,0.60,WeatherDisplay:10.37,2013-03-11 00:09:00,
2013-03-10 19:14:00,50.9,45.6,28.94,South,171,9.0,9.0,82,0.00,OVC,,0.60,WeatherDisplay:10.37,2013-03-11 00:14:00,
2013-03-10 19:19:00,50.7,45.4,28.94,South,176,9.0,10.0,82,0.00,OVC,,0.60,WeatherDisplay:10.37,2013-03-11 00:19:00,
2013-03-10 19:24:00,50.7,45.4,28.94,South,176,10.0,10.0,82,0.00,OVC,,0.60,WeatherDisplay:10.37,2013-03-11 00:24:00,
2013-03-10 19:29:00,50.7,45.7,28.94,South,181,10.0,11.0,83,0.00,OVC,,0.60,WeatherDisplay:10.37,2013-03-11 00:29:00,
2013-03-10 19:34:00,50.5,45.6,28.94,South,185,12.0,12.0,83,0.00,OVC,,0.60,WeatherDisplay:10.37,2013-03-11 00:34:00,
2013-03-10 19:39:00,50.5,45.6,28.94,SSW,193,12.0,12.0,83,0.00,OVC,,0.60,WeatherDisplay:10.37,2013-03-11 00:39:00,
2013-03-10 19:49:00,50.5,45.6,28.97,SSW,207,13.0,13.0,83,0.00,OVC,,0.60,WeatherDisplay:10.37,2013-03-11 00:49:00,
2013-03-10 19:54:00,50.5,45.6,28.97,SSW,204,13.0,13.0,83,0.00,OVC,,0.60,WeatherDisplay:10.37,2013-03-11 00:54:00,
2013-03-10 19:59:00,50.5,45.6,28.97,SSW,198,13.0,13.0,83,0.00,OVC,,0.60,WeatherDisplay:10.37,2013-03-11 00:59:00,
2013-03-10 20:04:00,50.5,45.6,28.97,SSW,197,13.0,13.0,83,0.00,OVC,,0.60,WeatherDisplay:10.37,2013-03-11 01:04:00,
2013-03-10 20:09:00,50.5,45.6,28.97,SSW,200,13.0,13.0,83,0.00,OVC,,0.60,WeatherDisplay:10.37,2013-03-11 01:09:00,
2013-03-10 20:14:00,50.5,45.6,28.97,SSW,201,13.0,13.0,83,0.00,OVC,,0.60,WeatherDisplay:10.37,2013-03-11 01:14:00,
2013-03-10 20:19:00,50.5,45.6,28.97,SSW,195,12.0,13.0,83,0.00,OVC,,0.60,WeatherDisplay:10.37,2013-03-11 01:19:00,
2013-03-10 20:24:00,50.5,45.6,28.97,SSW,193,13.0,13.0,83,0.00,OVC,,0.60,WeatherDisplay:10.37,2013-03-11 01:24:00,
2013-03-10 20:29:00,50.5,45.9,28.97,SSW,194,13.0,13.0,84,0.00,OVC,,0.60,WeatherDisplay:10.37,2013-03-11 01:29:00,
2013-03-10 20:34:00,50.5,45.9,28.97,SSW,196,13.0,13.0,84,0.00,OVC,,0.60,WeatherDisplay:10.37,2013-03-11 01:34:00,
2013-03-10 20:39:00,50.4,45.7,28.97,SSW,196,13.0,13.0,84,0.00,OVC,,0.60,WeatherDisplay:10.37,2013-03-11 01:39:00,
2013-03-10 20:44:00,50.4,45.7,28.97,South,189,14.0,14.0,84,0.00,OVC,,0.60,WeatherDisplay:10.37,2013-03-11 01:44:00,
2013-03-10 20:49:00,50.2,45.5,28.97,SSW,201,13.0,14.0,84,0.00,OVC,,0.60,WeatherDisplay:10.37,2013-03-11 01:49:00,
2013-03-10 20:54:00,50.2,45.5,28.97,SSW,206,13.0,13.0,84,0.00,OVC,,0.60,WeatherDisplay:10.37,2013-03-11 01:54:00,
2013-03-10 20:59:00,50.5,45.9,28.97,SSW,202,13.0,13.0,84,0.00,OVC,,0.60,WeatherDisplay:10.37,2013-03-11 01:59:00,
2013-03-10 21:04:00,50.4,45.7,28.97,SSW,205,13.0,13.0,84,0.00,OVC,,0.60,WeatherDisplay:10.37,2013-03-11 02:04:00,
2013-03-10 21:09:00,50.2,45.5,28.97,SSW,205,13.0,13.0,84,0.00,OVC,,0.60,WeatherDisplay:10.37,2013-03-11 02:09:00,
2013-03-10 21:14:00,49.8,45.5,28.97,SSW,203,14.0,14.0,85,0.00,OVC,,0.60,WeatherDisplay:10.37,2013-03-11 02:14:00,
2013-03-10 21:19:00,50.0,45.4,28.97,SSW,196,14.0,14.0,84,0.00,OVC,,0.60,WeatherDisplay:10.37,2013-03-11 02:19:00,
2013-03-10 21:24:00,50.0,45.4,28.97,SSW,199,14.0,14.0,84,0.00,OVC,,0.60,WeatherDisplay:10.37,2013-03-11 02:24:00,
2013-03-10 21:29:00,49.8,45.5,28.97,SSW,204,15.0,15.0,85,0.00,OVC,,0.60,WeatherDisplay:10.37,2013-03-11 02:29:00,
2013-03-10 21:34:00,50.0,45.4,28.97,SSW,210,15.0,15.0,84,0.00,OVC,,0.60,WeatherDisplay:10.37,2013-03-11 02:34:00,
2013-03-10 21:39:00,50.4,45.7,28.97,SSW,209,15.0,15.0,84,0.00,OVC,,0.60,WeatherDisplay:10.37,2013-03-11 02:39:00,
2013-03-10 21:44:00,50.0,45.4,28.97,SSW,207,16.0,16.0,84,0.00,OVC,,0.60,WeatherDisplay:10.37,2013-03-11 02:44:00,
2013-03-10 21:49:00,50.0,45.4,28.97,SSW,204,16.0,16.0,84,0.00,OVC,,0.60,WeatherDisplay:10.37,2013-03-11 02:49:00,
2013-03-10 21:54:00,50.0,45.4,28.97,SSW,202,16.0,16.0,84,0.00,OVC,,0.60,WeatherDisplay:10.37,2013-03-11 02:54:00,
2013-03-10 21:59:00,50.0,45.4,28.97,SSW,204,16.0,16.0,84,0.00,OVC,,0.60,WeatherDisplay:10.37,2013-03-11 02:59:00,
2013-03-10 22:04:00,49.3,45.0,28.97,SSW,203,16.0,16.0,85,0.00,OVC,,0.60,WeatherDisplay:10.37,2013-03-11 03:04:00,
2013-03-10 22:09:00,49.6,45.3,28.97,SSW,203,16.0,16.0,85,0.00,OVC,,0.60,WeatherDisplay:10.37,2013-03-11 03:09:00,
2013-03-10 22:14:00,49.3,45.0,28.97,SSW,202,16.0,16.0,85,0.00,OVC,,0.60,WeatherDisplay:10.37,2013-03-11 03:14:00,
2013-03-10 22:19:00,49.1,44.8,28.97,SSW,202,16.0,16.0,85,0.00,OVC,,0.60,WeatherDisplay:10.37,2013-03-11 03:19:00,
2013-03-10 22:24:00,48.9,44.6,28.97,SSW,203,16.0,16.0,85,0.00,OVC,,0.60,WeatherDisplay:10.37,2013-03-11 03:24:00,
2013-03-10 22:29:00,48.9,44.3,28.97,SSW,203,15.0,15.0,84,0.00,OVC,,0.60,WeatherDisplay:10.37,2013-03-11 03:29:00,
2013-03-10 22:34:00,48.9,44.6,28.97,SSW,205,15.0,15.0,85,0.00,OVC,,0.60,WeatherDisplay:10.37,2013-03-11 03:34:00,
2013-03-10 22:39:00,48.9,44.6,28.97,SSW,205,15.0,15.0,85,0.00,OVC,,0.60,WeatherDisplay:10.37,2013-03-11 03:39:00,
2013-03-10 22:44:00,49.3,45.0,28.97,SSW,207,15.0,15.0,85,0.00,OVC,,0.60,WeatherDisplay:10.37,2013-03-11 03:44:00,
2013-03-10 22:49:00,49.6,45.3,28.97,SSW,212,14.0,15.0,85,0.00,OVC,,0.60,WeatherDisplay:10.37,2013-03-11 03:49:00,
2013-03-10 22:54:00,49.5,45.1,28.97,SSW,211,14.0,14.0,85,0.00,OVC,,0.60,WeatherDisplay:10.37,2013-03-11 03:54:00,
2013-03-10 22:59:00,49.5,45.1,28.97,SSW,207,14.0,14.0,85,0.00,OVC,,0.60,WeatherDisplay:10.37,2013-03-11 03:59:00,
2013-03-10 23:04:00,49.8,45.5,28.97,SSW,208,14.0,14.0,85,0.00,OVC,,0.60,WeatherDisplay:10.37,2013-03-11 04:04:00,
2013-03-10 23:09:00,49.6,45.3,28.97,SSW,211,13.0,14.0,85,0.00,OVC,,0.60,WeatherDisplay:10.37,2013-03-11 04:09:00,
2013-03-10 23:14:00,49.6,45.3,28.97,SSW,208,13.0,13.0,85,0.00,OVC,,0.60,WeatherDisplay:10.37,2013-03-11 04:14:00,
2013-03-10 23:19:00,49.8,45.5,28.97,SSW,205,13.0,13.0,85,0.00,OVC,,0.60,WeatherDisplay:10.37,2013-03-11 04:19:00,
2013-03-10 23:24:00,49.8,45.5,28.97,SSW,204,13.0,13.0,85,0.00,OVC,,0.60,WeatherDisplay:10.37,2013-03-11 04:24:00,
2013-03-10 23:29:00,49.6,45.6,28.97,SSW,203,12.0,13.0,86,0.00,OVC,,0.60,WeatherDisplay:10.37,2013-03-11 04:29:00,
2013-03-10 23:34:00,49.8,45.8,28.97,SSW,208,12.0,12.0,86,0.00,OVC,,0.60,WeatherDisplay:10.37,2013-03-11 04:34:00,
2013-03-10 23:39:00,50.4,45.7,28.97,SSW,208,12.0,12.0,84,0.00,OVC,,0.60,WeatherDisplay:10.37,2013-03-11 04:39:00,
2013-03-10 23:44:00,49.8,45.8,28.97,SSW,207,12.0,12.0,86,0.00,OVC,,0.60,WeatherDisplay:10.37,2013-03-11 04:44:00,
2013-03-10 23:49:00,49.6,45.6,28.97,SSW,210,12.0,12.0,86,0.00,OVC,,0.60,WeatherDisplay:10.37,2013-03-11 04:49:00,
2013-03-10 23:54:00,50.0,45.4,28.97,SSW,212,12.0,12.0,84,0.00,OVC,,0.60,WeatherDisplay:10.37,2013-03-11 04:54:00,
2013-03-10 23:59:00,49.8,45.8,28.97,SW,221,13.0,13.0,86,0.00,OVC,,0.00,WeatherDisplay:10.37,2013-03-11 04:59:00,